This demonstration page uses our WeatherBlox Daily Observations layout. Learn more.

Left ArrowRight Arrow

39.08367, -84.50855

Hourly Observations for July 9, 2020

Temp ( °F °C ) Dew Point ( °F °C ) Humidity (%) Winds ( mph kmh ) Pressure ( in mb ) Visibility ( mi km ) Precip ( " mm )
12:53 am 00:53 Clear 74 23.3 71 21.7 91 91 N N/A 29.91 1013 9 14 N/A
1:53 am 01:53 Mostly Cloudy 74 23.3 71 21.7 91 91 N N/A 29.91 1013 7 11 N/A
2:53 am 02:53 Mostly Clear 73 22.8 71 21.7 94 94 N N/A 29.89 1012 7 11 N/A
3:53 am 03:53 Clear with Mist and Fog 72 22.2 70 21.1 94 94 N N/A 29.89 1012 6 10 N/A
4:53 am 04:53 Clear with Mist and Fog 72 22.2 70 21.1 94 94 NE 3 6 29.88 1012 5 8 N/A
5:53 am 05:53 Clear 72 22.2 70 21.1 94 94 NE 3 6 29.90 1012 7 11 N/A
6:53 am 06:53 Partly Cloudy with Mist and Fog 71 21.7 70 21.1 96 96 N N/A 29.93 1014 5 8 N/A
7:53 am 07:53 Sunny with Mist and Fog 75 23.9 72 22.2 90 90 N N/A 29.93 1014 6 10 N/A
8:53 am 08:53 Sunny 79 26.1 72 22.2 79 79 N N/A 29.93 1014 8 13 N/A
9:53 am 09:53 Sunny 83 28.3 74 23.3 74 74 N N/A 29.93 1014 9 14 N/A
10:53 am 10:53 Mostly Sunny 87 30.6 75 23.9 67 67 SW 3 6 29.93 1013 10 16 N/A
11:51 am 11:51 Partly Cloudy with Nearby Thunderstorms 90 32 73 23 59 59 N N/A 29.90 1012 10 16 N/A
11:53 am 11:53 Partly Cloudy with Nearby Thunderstorms 90 32.2 72 22.2 56 56 N N/A 29.91 1013 10 16 N/A
12:33 pm 12:33 Partly Cloudy 90 32.2 71 21.7 54 54 SSW 6 9 29.90 1012 10 16 N/A
12:38 pm 12:38 Partly Cloudy with Thunderstorms 90 32.2 71 21.7 54 54 SW 5 7 29.90 1012 10 16 N/A
12:53 pm 12:53 Partly Cloudy with Thunderstorms 93 33.9 70 21.1 47 47 N N/A 29.91 1013 10 16 N/A
1:01 pm 13:01 Partly Cloudy 91 32.8 70 21.1 50 50 WSW 3 6 29.90 1012 10 16 N/A
1:10 pm 13:10 Partly Cloudy with Nearby Thunderstorms 90 32.2 70 21.1 52 52 undefined N/A 29.90 1012 10 16 N/A
1:22 pm 13:22 Partly Cloudy with Thunderstorms 87 30.6 71 21.7 59 59 WSW 6 9 29.90 1013 10 16 N/A
1:51 pm 13:51 Mostly Cloudy 81 27 73 23 79 79 WSW 6 9 29.91 1013 10 16 0.00 0.00
1:53 pm 13:53 Mostly Cloudy 81 27.2 73 22.8 77 77 WSW 6 9 29.92 1013 10 16 0.00 0.00
2:05 pm 14:05 Mostly Cloudy with Nearby Thunderstorms 82 27.8 72 22.2 72 72 N N/A 29.89 1012 10 16 N/A
2:40 pm 14:40 Partly Cloudy 86 30 74 23.3 67 67 SSE 3 6 29.87 1012 10 16 0.00 0.00
2:53 pm 14:53 Mostly Sunny 86 30 73 22.8 65 65 SSE 5 7 29.88 1012 10 16 0.00 0.00
3:53 pm 15:53 Mostly Sunny 84 28.9 72 22.2 67 67 SSW 13 20 29.89 1012 10 16 N/A
4:53 pm 16:53 Mostly Sunny 83 28.3 70 21.1 65 65 S 6 9 29.86 1011 10 16 N/A
5:53 pm 17:53 Sunny 83 28.3 73 22.8 72 72 S 5 7 29.85 1011 10 16 N/A
6:53 pm 18:53 Sunny 83 28.3 73 22.8 72 72 N N/A 29.85 1011 10 16 N/A
7:53 pm 19:53 Sunny 85 29.4 70 21.1 61 61 N N/A 29.87 1011 10 16 N/A
8:53 pm 20:53 Sunny 78 25.6 73 22.8 85 85 N N/A 29.86 1011 10 16 N/A
9:53 pm 21:53 Clear 76 24.4 71 21.7 85 85 N N/A 29.86 1011 10 16 N/A
10:53 pm 22:53 Clear 74 23.3 71 21.7 91 91 N N/A 29.87 1012 9 14 N/A
11:53 pm 23:53 Clear 73 22.8 70 21.1 90 90 N 3 6 29.87 1012 9 14 N/A

Powered by AerisWeather